Weather History for Anaktuvuk Pass, AK

Change the Weather History Date:

Wednesday, September 5, 2012

  Actual Average Record
Temperature  
Mean Temperature 42 °F -  
Max Temperature 46 °F 43 °F 57 °F (2006)
Min Temperature 39 °F 30 °F 14 °F (2014)
Degree Days  
Heating Degree Days 22    
Moisture  
Dew Point 34 °F    
Average Humidity 70    
Maximum Humidity 81    
Minimum Humidity 57    
Precipitation  
Precipitation 0.00 in - - ()
Sea Level Pressure  
Sea Level Pressure 29.30 in    
Wind  
Wind Speed 8 mph (SSW)    
Max Wind Speed 18 mph    
Max Gust Speed 30 mph    
Visibility 10 miles    
Events      
Averages and records for this station are not official NWS values.
T = Trace of Precipitation, MM = Missing Value Source: NWS Daily Summary

Daily Weather History Graph

Daily Weather History Graph

Search for Another Location

Airport:

Trip Planner

Search our weather history database for the weather conditions in past years. The results will help you decide how hot, cold, wet, or windy it might be!

Date:

Astronomy

Sep. 05, 2012 Rise Set
Actual Time 6:49 AM AKDT 9:18 PM AKDT
Civil Twilight 5:47 AM AKDT 10:20 PM AKDT
Nautical Twilight 4:13 AM AKDT 11:51 PM AKDT
Astronomical Twilight Sun does not rise Sun does not rise
Moon 8:30 PM AKDT (9/5) 3:24 PM AKDT (9/5)
Length of Visible Light 16h 33m
Length of Day
14h 28m
Waning Gibbous, 75% of the Moon is Illuminated
Sep 5
Waning Gibbous
Sep 8
Last Quarter
Sep 15
New
Sep 22
First Quarter
Sep 29
Full

Hourly Weather History & Observations

Time (AKDT) Temp. Windchill Dew Point Humidity Pressure Visibility Wind Dir Wind Speed Gust Speed Precip Events Conditions
12:16 AM 42.8 °F - 35.6 °F 76% 29.38 in 10.0 mi Calm Calm - N/A   Overcast
12:36 AM 42.8 °F - 35.6 °F 76% 29.38 in 10.0 mi Calm Calm - N/A   Overcast
12:56 AM 42.8 °F - 35.6 °F 76% 29.36 in 10.0 mi Calm Calm - N/A   Overcast
1:16 AM 41.0 °F - 35.6 °F 81% 29.36 in 9.0 mi Calm Calm - N/A   Overcast
1:36 AM 41.0 °F - 35.6 °F 81% 29.36 in 7.0 mi Calm Calm - N/A   Overcast
1:56 AM 41.0 °F - 35.6 °F 81% 29.35 in 10.0 mi Calm Calm - N/A   Overcast
2:16 AM 41.0 °F - 35.6 °F 81% 29.34 in 10.0 mi Calm Calm - N/A   Overcast
2:36 AM 41.0 °F - 35.6 °F 81% 29.33 in 10.0 mi Calm Calm - N/A   Overcast
2:56 AM 41.0 °F - 35.6 °F 81% 29.33 in 10.0 mi Calm Calm - N/A   Overcast
3:16 AM 41.0 °F - 35.6 °F 81% 29.32 in 10.0 mi Calm Calm - N/A   Overcast
3:36 AM 41.0 °F 39.0 °F 35.6 °F 81% 29.31 in 10.0 mi North 3.5 mph - N/A   Overcast
3:56 AM 41.0 °F 38.0 °F 35.6 °F 81% 29.31 in 10.0 mi SW 4.6 mph - N/A   Overcast
4:16 AM 41.0 °F 37.1 °F 35.6 °F 81% 29.30 in 10.0 mi West 5.8 mph - N/A   Overcast
4:36 AM 41.0 °F 36.4 °F 35.6 °F 81% 29.30 in 10.0 mi WSW 6.9 mph - N/A   Overcast
4:56 AM 41.0 °F 36.4 °F 35.6 °F 81% 29.30 in 10.0 mi SW 6.9 mph - N/A   Mostly Cloudy
5:16 AM 42.8 °F 38.6 °F 35.6 °F 76% 29.30 in 10.0 mi SSW 6.9 mph - N/A   Overcast
5:36 AM 42.8 °F 37.0 °F 33.8 °F 70% 29.29 in 10.0 mi SW 10.4 mph 16.1 mph N/A   Overcast
5:56 AM 42.8 °F 36.6 °F 33.8 °F 70% 29.29 in 10.0 mi SW 11.5 mph 16.1 mph N/A   Overcast
6:16 AM 42.8 °F 37.0 °F 33.8 °F 70% 29.29 in 10.0 mi SSW 10.4 mph - N/A   Overcast
6:36 AM 41.0 °F 34.3 °F 33.8 °F 76% 29.29 in 10.0 mi SSW 11.5 mph - N/A   Overcast
6:56 AM 42.8 °F 36.2 °F 33.8 °F 70% 29.28 in 10.0 mi SSW 12.7 mph - N/A   Overcast
7:16 AM 41.0 °F 33.1 °F 33.8 °F 76% 29.28 in 10.0 mi South 15.0 mph 21.9 mph N/A   Overcast
7:36 AM 41.0 °F 33.1 °F 33.8 °F 76% 29.28 in 10.0 mi South 15.0 mph - N/A   Overcast
7:56 AM 41.0 °F 32.8 °F 33.8 °F 76% 29.27 in 10.0 mi SSW 16.1 mph 20.7 mph N/A   Overcast
8:16 AM 41.0 °F 32.2 °F 33.8 °F 76% 29.27 in 10.0 mi SSW 18.4 mph 21.9 mph N/A   Overcast
8:36 AM 41.0 °F 32.8 °F 33.8 °F 76% 29.27 in 10.0 mi SW 16.1 mph 23.0 mph N/A   Overcast
8:56 AM 39.2 °F 30.5 °F 33.8 °F 81% 29.27 in 10.0 mi SSW 16.1 mph 21.9 mph N/A   Overcast
9:16 AM 41.0 °F 32.8 °F 33.8 °F 76% 29.26 in 10.0 mi South 16.1 mph 20.7 mph N/A   Mostly Cloudy
9:36 AM 42.8 °F 35.4 °F 33.8 °F 70% 29.26 in 10.0 mi South 15.0 mph - N/A   Mostly Cloudy
9:56 AM 42.8 °F 36.2 °F 33.8 °F 70% 29.26 in 10.0 mi SW 12.7 mph 19.6 mph N/A   Mostly Cloudy
10:16 AM 42.8 °F 36.6 °F 33.8 °F 70% 29.25 in 10.0 mi SW 11.5 mph - N/A   Overcast
10:36 AM 42.8 °F 35.8 °F 33.8 °F 70% 29.25 in 10.0 mi SSW 13.8 mph - N/A   Overcast
10:56 AM 44.6 °F 38.4 °F 33.8 °F 66% 29.25 in 10.0 mi SSW 12.7 mph 19.6 mph N/A   Overcast
11:16 AM 44.6 °F 36.9 °F 33.8 °F 66% 29.26 in 10.0 mi South 18.4 mph 29.9 mph N/A   Overcast
11:36 AM 46.4 °F 41.1 °F 33.8 °F 62% 29.26 in 10.0 mi SSW 11.5 mph 17.3 mph N/A   Overcast
11:56 AM 44.6 °F 37.4 °F 33.8 °F 66% 29.27 in 10.0 mi SSW 16.1 mph 23.0 mph N/A   Overcast
12:16 PM 44.6 °F 37.8 °F 33.8 °F 66% 29.27 in 10.0 mi South 15.0 mph 23.0 mph N/A   Overcast
12:36 PM 44.6 °F 38.4 °F 33.8 °F 66% 29.28 in 10.0 mi South 12.7 mph 17.3 mph N/A   Overcast
12:56 PM 44.6 °F 38.1 °F 33.8 °F 66% 29.28 in 10.0 mi South 13.8 mph 23.0 mph N/A   Overcast
1:16 PM 44.6 °F 37.4 °F 33.8 °F 66% 29.28 in 10.0 mi South 16.1 mph 21.9 mph N/A   Overcast
1:36 PM 44.6 °F 37.2 °F 33.8 °F 66% 29.28 in 10.0 mi South 17.3 mph 20.7 mph N/A   Overcast
1:56 PM 44.6 °F 37.4 °F 33.8 °F 66% 29.29 in 10.0 mi South 16.1 mph - N/A   Overcast
2:16 PM 44.6 °F 38.1 °F 32.0 °F 61% 29.29 in 10.0 mi SSW 13.8 mph 21.9 mph N/A   Overcast
2:36 PM 46.4 °F 41.1 °F 33.8 °F 62% 29.29 in 10.0 mi South 11.5 mph - N/A   Overcast
2:56 PM 44.6 °F 37.8 °F 33.8 °F 66% 29.29 in 10.0 mi SSE 15.0 mph 18.4 mph N/A   Overcast
3:16 PM 44.6 °F 39.2 °F 33.8 °F 66% 29.30 in 10.0 mi South 10.4 mph 19.6 mph N/A   Overcast
3:36 PM 44.6 °F 39.2 °F 33.8 °F 66% 29.30 in 10.0 mi South 10.4 mph 16.1 mph N/A   Overcast
3:56 PM 44.6 °F 39.2 °F 33.8 °F 66% 29.30 in 10.0 mi South 10.4 mph 18.4 mph N/A   Overcast
4:16 PM 44.6 °F 39.7 °F 33.8 °F 66% 29.30 in 10.0 mi SSE 9.2 mph 17.3 mph N/A   Overcast
4:36 PM 44.6 °F 38.8 °F 33.8 °F 66% 29.30 in 10.0 mi South 11.5 mph - N/A   Overcast
4:56 PM 46.4 °F 40.7 °F 33.8 °F 62% 29.30 in 10.0 mi South 12.7 mph 19.6 mph N/A   Overcast
5:16 PM 46.4 °F 40.7 °F 33.8 °F 62% 29.30 in 10.0 mi South 12.7 mph 17.3 mph N/A   Overcast
5:36 PM 46.4 °F 41.9 °F 33.8 °F 62% 29.30 in 10.0 mi SSW 9.2 mph 19.6 mph N/A   Overcast
5:56 PM 46.4 °F 41.1 °F 33.8 °F 62% 29.30 in 10.0 mi South 11.5 mph 18.4 mph N/A   Overcast
6:16 PM 46.4 °F 41.5 °F 33.8 °F 62% 29.30 in 10.0 mi SSW 10.4 mph 16.1 mph N/A   Overcast
6:36 PM 46.4 °F 40.7 °F 33.8 °F 62% 29.30 in 10.0 mi South 12.7 mph 16.1 mph N/A   Overcast
6:56 PM 46.4 °F 41.5 °F 33.8 °F 62% 29.30 in 10.0 mi South 10.4 mph - N/A   Overcast
7:16 PM 46.4 °F 40.1 °F 32.0 °F 57% 29.30 in 10.0 mi South 15.0 mph 19.6 mph N/A   Mostly Cloudy
7:36 PM 44.6 °F 38.1 °F 33.8 °F 66% 29.31 in 10.0 mi South 13.8 mph - N/A   Overcast
7:56 PM 44.6 °F 38.8 °F 33.8 °F 66% 29.31 in 10.0 mi South 11.5 mph - N/A   Overcast
8:16 PM 44.6 °F 37.2 °F 33.8 °F 66% 29.30 in 10.0 mi South 17.3 mph 23.0 mph N/A   Overcast
8:36 PM 44.6 °F 37.8 °F 32.0 °F 61% 29.31 in 10.0 mi South 15.0 mph 23.0 mph N/A   Overcast
8:56 PM 44.6 °F 40.7 °F 32.0 °F 61% 29.31 in 10.0 mi SSW 6.9 mph - N/A   Overcast
9:16 PM 44.6 °F 38.8 °F 32.0 °F 61% 29.31 in 10.0 mi South 11.5 mph 21.9 mph N/A   Overcast
9:36 PM 44.6 °F 39.2 °F 32.0 °F 61% 29.32 in 10.0 mi South 10.4 mph 19.6 mph N/A   Overcast
9:56 PM 44.6 °F 38.8 °F 32.0 °F 61% 29.32 in 10.0 mi SSW 11.5 mph - N/A   Overcast
10:16 PM 44.6 °F 39.7 °F 32.0 °F 61% 29.32 in 10.0 mi SW 9.2 mph 17.3 mph N/A   Overcast
10:36 PM 44.6 °F 38.1 °F 32.0 °F 61% 29.32 in 10.0 mi SSW 13.8 mph 19.6 mph N/A   Overcast
10:56 PM 42.8 °F 35.8 °F 33.8 °F 70% 29.32 in 10.0 mi SSW 13.8 mph - N/A   Overcast
11:16 PM 42.8 °F 37.0 °F 33.8 °F 70% 29.32 in 10.0 mi South 10.4 mph - N/A   Overcast
11:36 PM 42.8 °F 37.0 °F 33.8 °F 70% 29.33 in 10.0 mi SSW 10.4 mph - N/A   Overcast
11:56 PM 42.8 °F 36.6 °F 33.8 °F 70% 29.34 in 10.0 mi SSW 11.5 mph - N/A   Overcast